Погода в Аяне

Россия / Хабаровский край     56°27′37″N   138°10′34″E
темп.,
°C
ветер,
м/с
пор.,
м/с
влажн.,
%
обл.,
%
осадки,
мм/ч
давл.,
гПа
погр.,
м
17 июня, чт
чт1701:00+6св3496100 0.0 100168
04:00+6ююв1195100 0.0 100211
07:00+8ю1290100 0.0 100237
10:00+7в3391100 0.0 100551
13:00+7ююз339036 0.0 100650
16:00+7юв0091100 0.1 100726
19:00+7с2291100 0.0 101033
22:00+7ссв0092100 0.0 101110
18 июня, пт
пт1801:00+7св1193100 0.0 101310
04:00+7св1192100 0.0 101411
07:00+7св1191100 0.0 101519
10:00+7всв129199 0.0 101550
13:00+8вюв129094 0.0 101661
16:00+8всв1192100 0.1 101652
19:00+8ссз1193100 0.0 101638
22:00+7сз1196100 0.0 101720
19 июня, сб
сб1901:00+7ссз1189100 0.0 101710
04:00+7сз1181100 0.0 101610
07:00+8з0074100 0.0 101619
10:00+7ю4475100 0.0 101666
13:00+7ю5776100 0.0 1015114
16:00+8ююз7972100 0.0 1014118
19:00+8ююз71071100 0.0 101383
22:00+9ююз566952 0.0 101237
20 июня, вс
вс2001:00+9юз44670 0.0 101120
04:00+9юз33650 0.0 101016
07:00+10ююз33640 0.0 100922
10:00+9ююз55675 0.0 100963
13:00+9ююз66695 0.0 100897
16:00+11ююз66637 0.0 100787
19:00+11ююз456632 0.0 100630
22:00+7ссв6791100 0.0 1009101
21 июня, пн
пн2101:00+6ссв7109275 0.0 1010207
04:00+7с698885 0.0 1011186
07:00+7ссв71086100 0.0 1012191
10:00+6ссв6995100 0.0 1012229
13:00+6св579478 0.0 1012160
16:00+6св449234 0.0 101191
19:00+6с0089100 0.0 101142
22:00+7ю2286100 0.0 101041